Temperature
24 24 24 24 23 23 24 25 25 24 23 23 22 21 20 19 19 18 18 17 17 17 18 18 18 18 18 18 18 17 17 17 16 16 16 16 15 15 15 15 14 14 14 14
23 23 23 23 23 23 23 23 23 23 23 22 21 21 20 19 19 18 18 17 17 17 17 17 17 18 18 18 17 17 17 16 16 16 16 16 15 15 15 15 15 14 14 14
24 23 23 23 23 23 23 23 23 23 23 22 21 20 20 19 18 18 17 17 17 17 17 17 17 17 17 17 17 17 16 16 16 16 16 16 15 15 15 15 15 15 14 14
24 23 22 23 22 22 22 22 22 22 21 21 20 19 18 18 18 17 17 16 16 16 16 17 17 17 17 17 16 16 16 16 16 16 16 15 15 15 15 15 14 15 14 14
23 23 23 22 21 21 22 21 21 21 21 20 19 19 19 17 16 16 16 16 16 16 16 16 16 16 16 16 16 16 16 15 15 15 15 15 15 15 15 14 14 14 14 14
22 22 22 22 21 20 22 21 20 20 20 19 20 21 20 16 16 16 16 16 16 16 16 16 16 16 16 16 15 15 15 15 15 15 15 15 15 14 14 14 14 14 14 14
22 22 23 20 19 20 21 22 19 19 19 19 19 20 17 16 15 15 15 15 16 15 15 15 15 15 15 15 15 15 15 14 14 14 14 14 14 14 14 14 13 13 13 13
22 22 21 18 19 21 21 19 18 18 18 17 17 16 15 15 15 15 15 15 15 15 15 15 15 15 14 14 14 14 14 14 14 14 14 14 14 14 13 13 13 13 13 13
21 20 18 17 18 17 17 17 17 17 16 16 15 15 15 14 14 14 15 15 15 14 14 14 14 14 14 14 14 14 14 14 14 14 13 13 13 13 13 13 13 13 13 13
19 18 17 16 15 15 16 16 15 15 15 15 15 14 14 14 14 14 14 14 14 14 14 13 13 13 13 13 13 13 13 13 13 13 13 13 13 13 12 12 12 12 12 12
19 17 16 15 15 15 14 14 14 14 14 14 14 14 14 14 13 13 13 13 13 13 13 13 13 13 12 12 12 12 12 12 12 12 12 12 12 12 12 12 12 12 12 12
19 17 17 16 14 14 14 14 13 13 13 13 13 13 13 13 13 13 12 12 12 12 12 12 12 12 12 12 12 12 12 12 11 11 11 11 11 12 12 12 12 12 12 12
16 15 15 14 13 13 13 13 13 13 13 12 12 12 12 12 12 12 12 12 12 12 12 12 11 11 11 11 11 11 11 11 11 11 11 11 11 11 11 11 11 12 12 12
13 13 13 13 13 12 12 12 12 12 12 12 12 12 12 12 12 11 11 11 11 11 11 11 11 11 11 11 10 10 10 10 10 10 10 10 10 10 10 10 10 11 11 11
12 12 13 12 12 12 12 12 12 12 11 11 11 11 11 11 11 11 11 10 10 10 10 10 10 10 10 10 10 10 10 9 9 9 9 9 9 10 10 10 10 10 10 11
11 11 11 11 11 11 11 11 11 11 11 11 11 11 10 10 10 10 10 10 10 10 10 10 10 9 9 9 9 9 9 9 9 9 9 9 9 9 9 9 9 9 9 10
11 11 11 11 11 10 10 10 10 10 10 10 10 10 10 10 9 9 9 9 9 9 9 9 9 9 9 8 8 8 8 8 8 8 8 8 8 8 8 8 8 8 9 9
10 10 10 10 10 10 10 10 10 9 9 9 9 9 9 9 9 9 9 9 9 9 9 8 8 8 8 8 8 8 8 8 8 8 8 8 8 8 8 8 8 8 8 8
9 9 9 9 9 9 9 9 9 9 9 9 9 9 9 9 8 8 8 8 8 8 8 8 8 7 7 7 7 7 7 7 7 7 7 7 7 7 7 7 7 7 7 7
9 9 9 9 9 9 9 9 8 8 8 8 8 8 8 8 8 8 8 8 8 7 7 7 7 7 7 7 6 6 6 6 6 6 6 6 7 7 7 7 6 7 7 7
8 8 8 8 8 8 8 8 8 8 8 8 7 7 7 7 7 7 7 7 7 7 7 6 6 6 6 6 6 6 6 6 6 6 6 6 6 6 6 6 6 6 6 6
8 7 7 7 7 8 8 7 7 7 7 7 7 7 7 7 7 7 7 7 7 6 6 6 6 6 6 5 5 5 5 5 5 5 5 5 5 5 5 5 5 5 5 5
7 7 7 7 7 7 7 7 7 7 6 6 7 7 6 6 6 6 6 6 6 6 6 6 5 5 5 5 5 5 5 5 5 5 5 5 5 5 5 5 5 5 5 5
7 7 6 6 6 6 6 6 6 6 6 6 6 6 6 6 6 6 6 6 6 5 5 5 5 5 5 4 4 4 4 4 4 4 4 4 4 4 4 4 4 4 4 4
6 6 6 6 6 6 6 6 6 6 6 6 6 6 6 6 5 5 5 5 5 5 5 5 5 4 4 4 4 4 4 4 4 4 4 4 4 4 4 4 4 4 4 4
6 6 5 5 5 5 5 5 5 5 5 5 5 5 5 5 5 5 5 5 4 4 4 4 4 4 4 4 4 4 4 3 3 3 3 3 3 4 4 4 4 3 3 4
5 5 5 5 5 5 5 5 5 5 5 5 5 5 5 4 4 4 4 4 4 4 4 4 4 4 3 3 3 3 3 3 3 3 3 3 3 3 3 3 3 3 3 3
Wind_Speed
2 3 3 3 5 6 5 4 4 4 4 3 3 4 4 4 5 5 5 5 5 4 3 3 2 2 1 1 1 2 3 4 5 5 5 6 6 7 7 7 7 7 7 7
4 3 3 3 4 6 5 3 3 4 3 3 4 5 5 4 4 4 4 4 4 4 4 3 3 2 2 1 1 1 2 3 3 4 5 5 6 6 7 7 7 7 7 7
5 4 4 6 5 7 5 4 5 5 3 5 5 5 4 4 4 3 4 4 4 4 4 3 3 3 2 2 1 1 2 2 3 3 4 5 6 6 7 7 7 8 8 8
4 6 8 1 3 3 5 3 2 2 5 6 5 5 4 4 3 4 4 4 4 4 4 4 4 3 2 2 1 1 2 3 3 4 4 5 5 6 7 7 7 8 8 9
5 7 5 3 4 4 5 3 2 4 5 6 6 6 5 4 4 3 4 4 4 4 4 4 4 4 3 2 2 2 3 4 4 4 4 5 5 6 7 7 8 8 8 9
6 7 6 3 4 3 4 4 2 4 6 6 6 4 2 2 3 3 4 4 4 4 4 5 5 4 3 3 3 4 4 5 5 5 5 5 6 6 6 7 8 8 8 9
9 7 4 3 3 5 7 2 4 4 5 5 4 1 3 3 3 3 4 4 4 4 4 5 5 4 4 4 5 6 6 6 6 6 6 6 6 6 6 7 7 8 9 9
7 8 5 4 5 5 2 6 6 5 4 4 3 4 3 3 3 3 3 4 4 4 4 4 5 5 5 6 6 6 6 6 6 7 6 6 7 7 7 7 8 9 9 10
3 1 5 5 4 3 4 5 5 4 4 4 3 2 2 1 2 2 3 3 4 4 4 4 5 5 6 7 7 7 7 7 7 8 7 7 7 8 8 7 8 8 8 9
3 3 5 4 4 4 4 4 4 3 3 2 2 1 1 0 0 1 2 3 4 4 5 6 6 6 7 7 7 7 7 7 7 8 8 8 7 7 8 8 8 9 9 9
4 4 5 4 4 3 4 4 4 3 2 1 1 0 1 1 1 2 2 3 4 5 5 7 7 7 7 8 8 8 9 8 8 8 8 8 8 8 9 10 9 10 10 10
4 5 4 5 4 4 3 3 2 2 1 1 0 1 2 2 2 2 3 4 4 5 6 7 8 8 8 8 9 9 9 9 8 8 8 8 9 9 10 12 12 13 14 14
1 3 2 3 4 4 3 2 1 1 0 1 1 2 2 3 3 4 5 5 6 6 7 8 8 9 9 9 9 10 10 10 9 9 9 9 9 10 11 10 12 14 16 16
4 4 3 4 3 3 3 2 2 1 1 1 2 3 4 4 5 6 6 7 7 7 8 8 9 9 9 9 10 11 11 10 10 9 9 10 10 11 11 11 11 11 11 14
5 4 4 3 3 3 3 3 2 2 2 2 3 4 5 6 7 7 7 8 8 9 9 9 9 10 10 10 11 12 11 10 10 10 10 11 11 11 11 12 12 12 11 10
5 5 5 4 4 3 3 3 3 3 3 4 4 5 6 7 8 8 8 8 9 10 10 10 11 11 10 11 11 11 10 11 11 11 12 11 11 11 12 12 12 12 11 11
7 6 5 5 4 4 3 3 4 4 4 5 6 6 7 8 8 9 8 9 10 11 11 11 11 11 11 12 12 11 11 11 12 12 12 12 12 12 12 12 12 12 12 11
5 5 5 5 4 4 4 4 4 5 5 6 7 7 8 9 10 10 10 10 10 11 11 11 11 11 12 12 12 11 11 12 12 12 12 12 13 13 13 13 13 14 12 11
4 3 3 4 4 4 4 5 5 5 6 6 7 8 9 10 10 10 10 10 11 12 11 11 10 12 13 12 11 11 12 13 13 13 13 13 13 13 13 13 13 13 13 11
3 2 3 3 3 4 5 5 6 7 7 8 9 9 10 10 10 10 10 10 10 10 11 11 12 12 13 12 11 12 13 14 15 14 14 13 13 13 13 14 14 13 13 12
3 3 3 4 4 5 6 6 7 8 8 8 9 10 11 11 10 10 10 10 11 10 11 11 11 11 11 12 13 13 14 14 14 14 14 14 14 14 14 14 14 13 12 12
3 3 4 4 5 6 6 7 7 8 9 9 10 10 11 11 11 10 11 10 10 9 9 10 10 11 13 15 13 13 14 14 14 13 13 13 13 14 14 14 14 13 12 12
4 4 5 5 6 7 8 8 8 9 10 10 11 11 12 11 10 10 10 9 9 10 10 10 12 15 17 14 13 13 13 14 14 13 13 13 13 13 13 15 13 12 12 11
5 5 6 7 7 8 9 9 9 9 10 10 10 11 11 10 10 9 10 9 10 11 11 11 13 16 16 12 12 13 13 13 13 13 13 13 13 13 13 13 12 11 11 12
6 7 7 8 8 8 9 10 10 10 10 9 10 10 10 9 9 10 10 11 11 12 11 12 15 16 13 12 12 12 12 12 13 13 13 12 12 12 12 11 11 10 10 9
8 7 7 8 8 8 8 9 9 9 9 9 9 9 9 8 9 9 9 11 13 13 12 11 11 12 11 12 12 13 13 13 13 12 12 12 12 12 11 10 12 10 9 8
9 8 7 8 8 8 8 8 9 9 9 9 10 10 10 9 9 10 11 11 11 11 11 11 11 11 11 11 12 12 12 12 12 12 11 11 11 10 10 11 9 8 7 7
Wind_Direction
105 100 159 179 187 195 216 236 225 174 166 149 129 123 111 104 95 82 67 56 45 35 28 23 16 4 333 286 252 231 226 235 246 250 249 252 252 250 250 253 257 260 264 262
175 164 186 199 201 197 206 214 197 178 176 122 121 120 114 108 94 79 62 48 38 30 23 14 9 1 353 326 280 240 243 257 268 270 261 256 254 253 254 251 253 255 258 259
213 181 209 225 219 205 193 196 201 207 170 143 135 126 115 102 92 74 53 38 28 22 18 8 3 2 356 337 311 264 269 280 285 280 275 268 260 255 252 250 250 253 254 254
222 203 230 128 85 174 174 166 195 149 139 152 140 124 105 81 76 63 48 35 25 16 13 7 4 360 352 355 342 312 301 298 298 291 285 281 271 261 257 257 252 250 252 253
226 226 228 176 159 171 177 158 162 163 148 143 139 136 110 70 52 45 35 27 21 13 12 11 9 357 348 347 334 318 306 299 297 292 290 283 275 270 263 261 258 254 253 252
218 226 232 174 143 184 200 184 140 164 157 156 171 188 134 75 56 50 41 30 21 16 15 14 8 356 346 340 330 317 308 301 297 291 284 279 277 276 270 260 259 260 256 253
222 229 230 95 136 175 203 174 134 151 156 165 178 74 86 93 76 64 52 35 22 16 12 3 356 349 338 334 326 317 309 301 294 288 281 278 278 276 274 267 262 260 260 255
214 224 218 112 156 185 99 96 126 131 137 144 123 90 96 95 83 60 44 31 19 11 6 359 353 343 335 331 323 316 308 299 293 288 282 278 275 274 273 272 265 261 262 261
215 157 83 118 117 88 106 115 114 119 120 125 127 123 111 99 76 45 25 16 5 359 353 351 348 338 328 329 323 315 309 302 297 293 285 280 276 274 271 268 267 266 264 265
179 155 132 127 116 112 107 104 100 107 117 128 135 139 161 168 8 2 359 357 350 345 343 341 338 331 324 324 320 312 308 305 301 297 292 287 280 274 271 269 268 269 268 268
197 163 154 159 149 128 113 103 97 93 101 112 131 246 262 261 291 313 322 329 332 332 332 328 328 327 326 325 319 311 308 307 304 301 296 288 281 275 270 268 267 268 271 268
215 186 187 178 168 152 141 126 110 97 75 39 323 283 279 276 282 292 304 313 318 323 322 323 324 323 324 322 316 311 310 309 305 300 296 290 288 285 270 263 260 253 257 263
238 159 161 147 160 166 169 164 157 162 191 293 299 291 290 288 286 290 295 300 304 308 311 314 315 316 319 319 314 309 306 305 303 299 295 292 289 288 289 282 261 252 249 250
179 161 173 171 177 183 188 190 201 220 242 271 291 294 293 291 289 288 291 294 297 298 300 304 306 309 314 314 309 305 303 301 298 295 293 291 289 287 286 287 288 283 265 250
190 205 196 179 177 181 188 196 213 237 266 284 294 293 292 290 289 289 291 292 293 293 295 299 302 306 310 308 304 303 302 300 298 296 292 289 288 287 285 284 284 284 285 274
181 176 172 172 174 182 192 209 232 256 273 283 289 291 291 290 289 288 288 288 289 291 294 296 298 303 306 303 301 299 296 292 292 293 292 289 288 288 287 285 284 283 280 279
172 176 179 185 193 203 214 229 247 262 272 280 286 289 288 287 286 287 288 287 287 289 291 292 296 301 302 300 298 296 296 294 289 288 288 289 288 287 285 283 282 281 280 278
184 186 191 198 207 218 231 244 258 268 276 283 286 284 284 284 287 289 290 290 289 289 289 291 296 301 298 296 297 296 294 293 292 290 289 288 289 287 284 282 281 281 282 279
181 195 209 218 225 230 242 255 266 273 279 283 285 285 286 285 288 290 290 288 289 290 294 298 301 294 293 294 296 290 290 290 290 289 288 286 285 285 284 283 283 281 279 278
183 201 218 230 239 247 255 262 268 273 277 281 281 282 284 285 288 288 287 285 286 292 297 301 298 293 293 295 297 292 290 289 290 290 288 286 285 285 285 284 282 281 279 275
205 222 236 247 257 262 264 267 269 272 276 276 276 279 282 285 286 286 286 287 292 298 299 297 292 293 295 301 297 292 290 290 290 290 289 287 286 285 284 282 280 279 277 274
231 242 251 261 267 272 273 273 272 273 275 275 275 278 281 283 283 283 280 283 291 297 296 292 292 298 302 302 294 291 290 290 290 289 288 287 286 285 285 284 281 280 277 273
248 253 259 266 272 277 279 274 271 270 271 274 276 279 280 282 282 281 284 289 292 298 296 290 295 299 299 295 292 291 291 291 291 290 288 287 286 285 285 285 283 280 277 273
257 262 267 272 275 274 274 276 277 274 274 275 274 276 278 279 279 278 282 285 285 289 289 288 290 293 295 292 291 291 292 292 291 291 291 290 288 286 285 285 282 279 277 274
264 265 267 270 272 273 277 281 281 280 278 278 278 279 277 275 276 282 285 288 290 288 288 290 292 294 292 290 291 291 292 291 292 294 292 292 290 288 285 284 282 280 278 275
265 266 267 268 273 277 279 278 276 278 280 282 284 285 285 282 279 279 280 285 287 288 288 289 291 290 290 292 294 294 293 293 292 291 291 292 291 290 286 284 284 281 279 278
263 263 265 267 269 270 272 273 274 278 282 284 287 290 290 288 285 285 286 286 288 288 288 289 291 292 293 294 294 295 294 294 295 295 295 293 291 288 283 281 281 280 279 277
Height
1477 1479 1480 1482 1484 1485 1484 1482 1485 1487 1491 1493 1496 1499 1501 1502 1503 1503 1503 1503 1503 1502 1502 1502 1502 1502 1502 1502 1502 1502 1503 1503 1503 1504 1503 1503 1503 1502 1502 1502 1502 1501 1501 1500
1481 1481 1481 1484 1484 1485 1486 1485 1486 1489 1492 1494 1497 1499 1501 1502 1503 1503 1503 1503 1503 1502 1502 1501 1501 1501 1501 1501 1500 1500 1500 1501 1501 1500 1500 1500 1500 1499 1499 1499 1498 1498 1498 1497
1479 1481 1482 1485 1482 1483 1485 1485 1485 1487 1491 1494 1497 1499 1500 1502 1502 1503 1503 1503 1502 1502 1501 1501 1501 1500 1500 1499 1499 1499 1499 1498 1498 1497 1497 1497 1497 1496 1495 1495 1495 1494 1494 1493
1478 1483 1492 1483 1481 1482 1484 1486 1487 1488 1491 1494 1497 1499 1501 1502 1502 1502 1502 1502 1501 1501 1500 1500 1500 1499 1498 1498 1497 1497 1497 1496 1495 1495 1494 1493 1493 1492 1492 1492 1491 1490 1490 1490
1479 1482 1482 1483 1483 1483 1484 1488 1489 1489 1492 1495 1497 1498 1500 1502 1502 1502 1502 1501 1501 1500 1500 1499 1498 1497 1497 1496 1495 1495 1494 1493 1493 1492 1491 1490 1489 1488 1488 1487 1487 1486 1485 1485
1480 1484 1485 1479 1481 1483 1485 1487 1489 1489 1491 1494 1495 1493 1498 1501 1501 1501 1500 1500 1500 1499 1499 1498 1496 1495 1495 1494 1493 1492 1491 1491 1490 1489 1488 1487 1486 1485 1484 1483 1482 1482 1481 1480
1477 1478 1474 1480 1482 1484 1487 1485 1488 1490 1491 1493 1494 1495 1499 1499 1499 1500 1499 1499 1498 1498 1497 1496 1495 1493 1492 1492 1490 1489 1488 1487 1486 1486 1484 1483 1482 1481 1480 1479 1478 1477 1476 1475
1476 1479 1480 1482 1482 1482 1483 1486 1488 1490 1492 1494 1495 1497 1497 1498 1498 1498 1498 1498 1497 1496 1495 1494 1492 1491 1490 1489 1487 1486 1485 1484 1483 1482 1481 1479 1478 1477 1476 1475 1474 1472 1471 1470
1472 1477 1481 1482 1483 1485 1486 1487 1489 1490 1492 1494 1495 1496 1497 1497 1497 1497 1497 1496 1495 1494 1493 1492 1491 1489 1488 1486 1484 1482 1481 1479 1478 1477 1476 1475 1474 1472 1471 1470 1469 1468 1467 1465
1476 1478 1482 1484 1485 1486 1487 1488 1490 1491 1492 1493 1494 1495 1495 1496 1496 1495 1495 1494 1493 1493 1491 1490 1488 1487 1485 1483 1481 1479 1477 1476 1474 1473 1471 1470 1469 1467 1466 1465 1464 1463 1462 1460
1474 1479 1482 1484 1485 1486 1487 1488 1489 1490 1491 1492 1492 1493 1493 1494 1494 1494 1493 1492 1491 1490 1489 1487 1486 1484 1482 1480 1478 1476 1474 1472 1470 1468 1466 1465 1463 1462 1460 1459 1458 1457 1455 1454
1471 1475 1477 1481 1484 1485 1486 1487 1488 1489 1490 1490 1491 1491 1491 1492 1491 1491 1491 1490 1489 1487 1486 1484 1483 1481 1479 1477 1475 1473 1471 1468 1466 1464 1461 1459 1457 1455 1453 1452 1451 1449 1448 1447
1474 1476 1478 1480 1482 1484 1485 1486 1487 1488 1488 1489 1489 1489 1489 1489 1489 1488 1488 1487 1486 1484 1483 1481 1479 1477 1475 1473 1471 1469 1467 1464 1462 1459 1456 1454 1452 1449 1446 1444 1443 1441 1440 1438
1474 1475 1477 1479 1480 1482 1483 1484 1485 1486 1486 1487 1487 1486 1486 1486 1486 1485 1484 1483 1482 1480 1479 1477 1475 1473 1471 1468 1466 1464 1462 1459 1456 1454 1451 1449 1446 1444 1441 1438 1435 1433 1432 1430
1472 1474 1475 1477 1479 1480 1481 1482 1483 1483 1484 1484 1483 1483 1483 1482 1482 1481 1480 1479 1477 1476 1474 1472 1470 1468 1466 1464 1461 1459 1456 1454 1451 1448 1445 1443 1440 1438 1435 1432 1429 1426 1424 1422
1470 1472 1473 1475 1476 1477 1478 1479 1480 1480 1480 1480 1480 1480 1479 1479 1478 1476 1475 1474 1473 1471 1469 1467 1465 1463 1461 1458 1456 1453 1451 1448 1445 1442 1439 1437 1434 1431 1428 1425 1422 1420 1417 1415
1468 1469 1471 1472 1474 1475 1476 1476 1477 1477 1477 1477 1477 1476 1475 1474 1473 1472 1470 1469 1467 1466 1464 1462 1460 1457 1455 1453 1450 1447 1445 1442 1439 1436 1433 1430 1427 1424 1421 1418 1415 1412 1410 1408
1465 1467 1468 1470 1471 1472 1473 1473 1474 1474 1474 1473 1472 1472 1471 1470 1468 1467 1465 1463 1462 1460 1458 1456 1454 1451 1449 1446 1444 1441 1438 1435 1432 1429 1426 1423 1420 1417 1414 1411 1408 1405 1402 1400
1463 1465 1466 1468 1468 1469 1470 1470 1470 1470 1470 1469 1468 1467 1466 1465 1463 1462 1460 1458 1456 1454 1452 1450 1447 1445 1442 1440 1437 1434 1432 1428 1425 1422 1419 1415 1412 1409 1406 1403 1400 1397 1395 1392
1461 1462 1463 1464 1465 1466 1466 1466 1466 1465 1465 1464 1463 1462 1461 1460 1458 1456 1454 1452 1450 1448 1446 1443 1440 1438 1436 1433 1430 1428 1424 1421 1418 1414 1411 1407 1404 1401 1398 1395 1392 1389 1387 1384
1458 1459 1460 1460 1461 1461 1461 1461 1461 1460 1460 1459 1458 1457 1455 1454 1453 1451 1448 1446 1444 1442 1439 1436 1434 1432 1429 1426 1423 1420 1417 1413 1410 1406 1403 1399 1396 1393 1390 1387 1384 1381 1378 1376
1455 1456 1456 1457 1457 1457 1457 1456 1456 1455 1454 1453 1452 1451 1450 1448 1446 1444 1442 1441 1438 1436 1433 1431 1428 1425 1423 1419 1416 1413 1409 1406 1402 1398 1395 1391 1388 1385 1381 1378 1375 1372 1370 1367
1452 1452 1453 1452 1452 1452 1451 1451 1450 1449 1448 1447 1446 1445 1444 1442 1440 1438 1436 1434 1432 1429 1426 1424 1421 1418 1415 1412 1409 1405 1402 1398 1394 1391 1387 1383 1380 1377 1373 1370 1367 1364 1361 1358
1449 1449 1449 1448 1448 1447 1446 1445 1445 1443 1442 1441 1440 1439 1437 1435 1433 1432 1430 1427 1425 1422 1420 1417 1414 1411 1408 1405 1402 1398 1395 1391 1387 1383 1379 1376 1372 1369 1365 1362 1359 1356 1353 1350
1444 1444 1444 1444 1443 1442 1441 1440 1439 1437 1436 1435 1434 1432 1431 1429 1427 1425 1423 1421 1418 1415 1413 1410 1407 1404 1401 1398 1394 1391 1387 1383 1379 1376 1372 1368 1364 1361 1358 1354 1352 1349 1346 1343
1440 1440 1439 1439 1438 1437 1435 1434 1433 1432 1430 1429 1427 1426 1424 1422 1420 1418 1416 1413 1411 1408 1405 1403 1400 1397 1394 1391 1387 1384 1380 1376 1372 1368 1364 1360 1357 1354 1351 1348 1345 1342 1339 1337
1434 1434 1433 1432 1431 1430 1429 1428 1427 1425 1424 1422 1421 1419 1417 1415 1413 1411 1409 1407 1404 1402 1399 1396 1393 1390 1387 1384 1380 1377 1374 1370 1366 1362 1358 1354 1350 1347 1344 1342 1339 1336 1334 1332